Flag for Germany Weather past 2 weeks in Kulmbach, Bavaria, Germany

Now
61 °F

Fog.


Feels Like: 61 °F
Forecast: 55 / 76 °F
Wind: 5 mph from North

Location: Hof Airport

Current Time: Jul 30, 2014 at 3:49:26 AM

Latest Report: Jul 30, 2014 at 2:50 AM


Visibility: 1 mi

Pressure: 29.77 "Hg

Humidity: 94%

Dew point: 59 °F

Location of KulmbachLocation

Historic Weather in Kulmbach — Graph

°F

Kulmbach temperature yesterday

Maximum temperature yesterday: 73 °F (at 10:50 AM)
Minimum temperature yesterday: 59 °F (at 12:20 AM)
Average temperature yesterday: 64 °F

Past Weeks' High & Low Weather Summary

 TemperatureHumidityPressure
High88 °F (Jul 20, 2:50 PM)94% (Jul 15, 2:50 AM)30.24 "Hg (Jul 15, 2:50 AM)
Low52 °F (Jul 15, 4:50 AM)24% (Jul 19, 5:20 PM)29.77 "Hg (Jul 29, 6:20 PM)
Average67 °F67%30.02 "Hg
* Reported Jul 15 2:20 AM — Jul 30 2:20 AM, Kulmbach, Weather by CustomWeather, © 2014

Note: Actual official high and low records may vary slightly from our data, if they occured in-between our weather recording intervals... More about our weather records

Advertising

Kulmbach weather history for previous 24 hours

 ConditionsComfort  
Time TempWeatherWind HumidityBarometerVisibility
2:20 AM
Jul 30
61 °FFog.3 mph94%29.77 "Hg1 mi
1:50 AM61 °FFog.6 mph94%29.77 "Hg1 mi
1:20 AM61 °FFog.3 mph94%29.77 "Hg1 mi
12:50 AM61 °FPartly cloudy.3 mph94%29.77 "Hg2 mi
12:20 AM61 °FPassing clouds.2 mph94%29.80 "Hg1 mi
11:50 PM
Jul 29
59 °FFog.No wind94%29.80 "Hg0 mi
11:20 PM59 °FLight fog.1 mph94%29.80 "Hg0 mi
10:50 PM61 °FFog.1 mph88%29.80 "Hg0 mi
10:20 PM61 °FLight fog.2 mph94%29.80 "Hg0 mi
9:50 PM61 °FFog.1 mph94%29.80 "Hg1 mi
9:20 PM63 °FFog.1 mph94%29.80 "Hg2 mi
8:50 PM63 °FFog.3 mph94%29.80 "Hg2 mi
8:20 PM64 °FFog.5 mph88%29.80 "Hg4 mi
7:50 PM64 °FClear.2 mph88%29.80 "Hg5 mi
7:20 PM64 °FSunny.3 mph88%29.80 "Hg10 mi
6:50 PM66 °FSunny.1 mph83%29.80 "Hg10 mi
6:20 PM64 °FPassing clouds.6 mph88%29.77 "HgN/A
5:50 PM64 °FLight rain. Passing clouds.3 mph88%29.80 "Hg4 mi
5:20 PM64 °FLight rain. Scattered clouds.5 mph94%29.80 "Hg2 mi
4:50 PM64 °FRain. Scattered clouds.6 mph94%29.80 "Hg2 mi
4:20 PM66 °FLight rain. Scattered clouds.3 mph88%29.83 "Hg2 mi
3:50 PM66 °FLight rain. Scattered clouds.No wind88%29.80 "Hg2 mi
3:20 PM66 °FLight rain. Scattered clouds.No wind88%29.80 "Hg2 mi
2:50 PM66 °FRain. Broken clouds.2 mph88%29.83 "Hg2 mi
2:20 PM66 °FLight rain. Broken clouds.2 mph88%29.83 "Hg4 mi
1:50 PM66 °FLight rain. Broken clouds.No wind88%29.83 "Hg4 mi
1:20 PM64 °FHeavy rain. Broken clouds.2 mph94%29.83 "Hg1 mi
12:50 PM66 °FThunderstorms. Broken clouds.2 mph88%29.83 "Hg4 mi
11:50 AM70 °FSprinkles. Scattered clouds.6 mph64%29.83 "HgN/A
11:20 AM72 °FPartly sunny.7 mph65%29.83 "HgN/A
10:50 AM73 °FBroken clouds.2 mph61%29.83 "HgN/A
10:20 AM72 °FPassing clouds.2 mph65%29.83 "HgN/A
9:50 AM70 °FSunny.2 mph69%29.83 "Hg10 mi
9:20 AM68 °FSunny.2 mph73%29.83 "Hg10 mi
8:50 AM66 °FPassing clouds.3 mph78%29.83 "HgN/A
8:20 AM66 °FPassing clouds.3 mph78%29.83 "HgN/A
7:50 AM64 °FClear.8 mph83%29.83 "Hg5 mi
7:20 AM63 °FClear.3 mph88%29.83 "Hg6 mi
6:50 AM61 °FBroken clouds.1 mph88%29.83 "Hg6 mi
6:20 AM61 °FPartly cloudy.No wind88%29.83 "Hg4 mi
5:50 AM61 °FPassing clouds.No wind88%29.83 "Hg5 mi
5:20 AM61 °FPassing clouds.5 mph88%29.83 "HgN/A
4:50 AM61 °FPassing clouds.5 mph88%29.86 "HgN/A
4:20 AM61 °FPassing clouds.No wind88%29.86 "HgN/A
3:50 AM61 °FPassing clouds.6 mph88%29.86 "HgN/A
3:20 AM59 °FPassing clouds.No wind94%29.86 "HgN/A
Weather by CustomWeather, © 2014

See weather overviewHow to use our weather pages